Regional Weather Roundup
Issued by NWS

Home | Current Version | Previous Version | Graphics & Text | Print | Product List | Glossary On
Versions: 1 2 3 4 5 6 7 8 9 10 11 12 13 14 15 16 17 18 19 20 21 22 23 24 25 26 27 28 29 30 31 32 33 34 35 36 37 38 39 40 41 42 43 44 45 46 47 48 49 50
000
ASUS43 KDMX 161901
RWRIA

WEATHER ROUNDUP FOR IOWA
NATIONAL WEATHER SERVICE DES MOINES IA
100 PM CST TUE JAN 16 2018

NOTE: "FAIR" INDICATES FEW OR NO CLOUDS BELOW 12,000 FEET WITH NO
SIGNIFICANT WEATHER AND/OR OBSTRUCTIONS TO VISIBILITY.

* - THESE STATIONS ARE NOT NWS STATIONS...THUS NOT UNDER NWS
QUALITY CONTROL.  THEY ALSO DO NOT REPORT WEATHER SUCH
AS PRECIPITATION OR FOG.

IAZ001>003-012>014-020>022-031>034-043>046-162000-
   NORTHWEST IOWA

CITY           SKY/WX    TMP DP  RH WIND       PRES   REMARKS
CARROLL *      CLOUDY     3  -2  78 NW13      30.69F WCI -14
CHEROKEE *     PTSUNNY    4  -2  74 N8        30.70F WCI  -9
DENISON *      MOSUNNY    3  -2  78 NW9       30.71F WCI -11
LE MARS *      SUNNY      3  -4  72 NW13      30.72F WCI -14
ORANGE CITY *  SUNNY      3  -2  78 W10       30.68F WCI -12
SHELDON *      MOSUNNY    1  -4  78 NW12      30.66F WCI -15
SIOUX CITY     SUNNY      4  -3  73 NW14      30.74F WCI -14
SPENCER        PTSUNNY    4  -4  69 W10       30.67F WCI -11
STORM LAKE *   MOSUNNY    1  -4  78 NW14      30.65F WCI -17
$$

IAZ055>058-069>071-079>083-090>094-162000-
   SOUTHWEST IOWA

CITY           SKY/WX    TMP DP  RH WIND       PRES   REMARKS
ATLANTIC *     CLOUDY     5  -2  72 NW14      30.71F WCI -12
AUDUBON *      MOSUNNY    5  -2  72 N10       30.68F WCI -10
CLARINDA *     CLOUDY     5   0  78 NW13      30.74  WCI -12
COUNCIL BLFS * PTSUNNY    5   0  78 NW9       30.71F WCI  -9
CRESTON *      CLOUDY     3  -4  72 NW14      30.67F WCI -15
HARLAN  *      CLOUDY     3  -2  78 NW10      30.74F WCI -12
LAMONI         SUNNY      6  -3  66 NW12      30.66F WCI  -9
RED OAK *      PTSUNNY    7  -2  66 NW8G15    30.74S WCI  -6
SHENANDOAH *   CLOUDY     7   0  72 NW9       30.75F WCI  -7
$$

IAZ047>049-059>061-072>074-084-162000-
   CENTRAL IOWA

CITY           SKY/WX    TMP DP  RH WIND       PRES   REMARKS
AMES           CLOUDY     6   1  80 N15       30.68F WCI -12
ANKENY *       CLOUDY     5   0  78 NW12      30.70F WCI -11
BOONE *        CLOUDY     5   0  78 NW12      30.65F WCI -11
CHARITON *     SUNNY      5  -2  72 NW12      30.65F WCI -11
DES MOINES     MOSUNNY    5  -3  69 NW13      30.68F WCI -12
GRINNELL*      FLURRIES   5  -1  77 NW15      30.65S WCI -13
KNOXVILLE *    SUNNY      5  -6  61 NW13      30.65F WCI -12
MARSHALLTOWN   MOSUNNY    5  -1  76 NW15      30.64F WCI -13
NEWTON *       MOSUNNY    5  -2  72 NW14      30.66F WCI -12
PELLA *        MOSUNNY    6  -2  69 NW10G17   30.68F WCI  -9
PERRY *        CLOUDY     3  -3  77 NW12      30.70S WCI -14
$$

IAZ004>006-015-016-023>025-035-036-162000-
   NORTH CENTRAL IOWA

CITY           SKY/WX    TMP DP  RH WIND       PRES   REMARKS
ALGONA *       MOSUNNY    1 N/A N/A NW9       30.65F WCI -14
CLARION *      PTSUNNY    3  -2  78 NW14      30.65F WCI -15
ESTHERVILLE    PTSUNNY    0  -5  79 NW10      30.65F WCI -16
FORT DODGE *   PTSUNNY    4  -5  66 NW9       30.67F WCI -10
MASON CITY     CLOUDY     3  -2  79 NW14      30.63F WCI -15
FOREST CITY *  CLOUDY     3   0  85 NW12      30.63F FOG     WCI -13
WEBSTER CITY * CLOUDY     3  -4  72 NW14      30.65F WCI -15
IOWA FALLS *   CLOUDY     6   0  76 NW14      30.65F HAZE    WCI -12
$$

IAZ007>011-017>019-026>030-037>042-050>054-066-162000-
   NORTHEAST IOWA

CITY           SKY/WX    TMP DP  RH WIND       PRES   REMARKS
CEDAR RAPIDS     N/A     11   3  70 NW17      30.59F WCI  -6
CHARLES CITY * CLOUDY     5   0  78 NW13      30.62F WCI -12
CLINTON *        N/A     16  10  77 NW12      30.56F WCI   3
DECORAH *      FLURRIES  10   7  85 NW8       30.56F WCI  -1
DUBUQUE          N/A     15   7  70 N12       30.52F WCI   2
MONTICELLO *   PTSUNNY   16   7  67 NW8       30.57S WCI   5
OELWEIN *      CLOUDY     9   5  85 NW15      30.59F WCI  -8
WATERLOO         N/A      7  -1  70 NW12      30.63F WCI  -8
$$

IAZ064-065-067-068-078-162000-
   EAST CENTRAL IOWA

CITY           SKY/WX    TMP DP  RH WIND       PRES   REMARKS
DAVENPORT      LGT SNOW  15   7  70 NW12      30.58F WCI   2
IOWA CITY        N/A     12   2  64 NW13      30.63F WCI  -3
MT. PLEASANT * FLURRIES  10   1  67 W12       30.63F WCI  -4
MUSCATINE *    CLOUDY    12   3  67 NW13      30.63F WCI  -3
QUAD CITIES    CLOUDY    15   7  70 NW14      30.57F HAZE    WCI   0
$$

IAZ062-063-075>077-085>089-095>099-162000-
   SOUTHEAST IOWA

CITY           SKY/WX    TMP DP  RH WIND       PRES   REMARKS
BURLINGTON     PTSUNNY    9   0  67 NW12      30.61F WCI  -6
FAIRFIELD *    PTSUNNY    7  -2  66 W14       30.63F WCI -10
FORT MADISON * MOSUNNY    9   1  72 W16       30.63F WCI  -9
KEOKUK *       MOSUNNY    9   0  66 W10       30.63F WCI  -6
OSKALOOSA *      N/A      7   0  74 NW14      30.65F WCI -10
OTTUMWA        SUNNY      7  -2  66 NW13      30.65F WCI  -9
WASHINGTON *   MOSUNNY    9   3  78 W15       30.63F WCI  -8
$$

ABBREVIATIONS USED IN REMARKS
   TC - TEMPERATURES IN CELSIUS
  WCI - WIND CHILL INDEX
   HX - HEAT INDEX
  VSB - VISIBILITY
$$





USA.gov is the U.S. government's official web portal to all federal, state and local government web resources and services.